Location: Cuguron
(43.0994°N, 0.5363°E)
Time: 22:12:54
(UTC+00:00)

NOSS 3-4 (C) - Pass Details

Date: 15 May 2026
Orbit: 773 x 1438 km, 63.4° (Epoch: 26 December)

Event Time Altitude Azimuth Distance (km) Brightness Sun altitude
Rises 22:31:53 0° 318° (NW) 3,804 7.7 -25.0°
Reaches altitude 10° 22:34:27 10° 313° (NW) 2,940 6.8 -25.2°
Maximum altitude 22:41:09 47° 242° (WSW) 1,571 4.4 -25.6°
Enters shadow 22:43:10 39° 205° (SSW) 1,790 4.5 -25.7°
